Year,Month,Day,Hour,Minute,Value (Times are PST for windspeed in km/hr)
2010,06,14,00,00,0.60
2010,06,14,00,01,0.90
2010,06,14,00,02,1.00
2010,06,14,00,03,0.10
2010,06,14,00,04,0.40
2010,06,14,00,05,1.00
2010,06,14,00,06,1.50
2010,06,14,00,07,1.50
2010,06,14,00,08,0.40
2010,06,14,00,09,0.70
2010,06,14,00,10,0.40
2010,06,14,00,11,0.30
2010,06,14,00,12,0.00
2010,06,14,00,13,0.30
2010,06,14,00,14,0.80
2010,06,14,00,15,0.30
2010,06,14,00,16,0.30
2010,06,14,00,17,1.20
2010,06,14,00,18,1.90
2010,06,14,00,19,1.80
2010,06,14,00,20,0.80
2010,06,14,00,21,0.70
2010,06,14,00,22,0.30
2010,06,14,00,23,0.70
2010,06,14,00,24,0.20
2010,06,14,00,25,0.60
2010,06,14,00,26,0.50
2010,06,14,00,27,0.40
2010,06,14,00,28,1.00
2010,06,14,00,29,1.80
2010,06,14,00,30,2.90
2010,06,14,00,31,2.40
2010,06,14,00,32,0.80
2010,06,14,00,33,0.20
2010,06,14,00,34,0.10
2010,06,14,00,35,0.20
2010,06,14,00,36,1.00
2010,06,14,00,37,1.00
2010,06,14,00,38,1.20
2010,06,14,00,39,0.20
2010,06,14,00,40,0.20
2010,06,14,00,41,0.20
2010,06,14,00,42,0.50
2010,06,14,00,43,1.70
2010,06,14,00,44,0.90
2010,06,14,00,45,0.60
2010,06,14,00,46,1.00
2010,06,14,00,47,1.10
2010,06,14,00,48,2.00
2010,06,14,00,49,1.70
2010,06,14,00,50,2.00
2010,06,14,00,51,1.50
2010,06,14,00,52,1.00
2010,06,14,00,53,0.70
2010,06,14,00,54,0.60
2010,06,14,00,55,0.40
2010,06,14,00,56,0.30
2010,06,14,00,57,1.50
2010,06,14,00,58,1.50
2010,06,14,00,59,1.30
2010,06,14,01,00,1.30
2010,06,14,01,01,1.80
2010,06,14,01,02,1.50
2010,06,14,01,03,2.30
2010,06,14,01,04,3.40
2010,06,14,01,05,3.50
2010,06,14,01,06,2.40
2010,06,14,01,07,2.80
2010,06,14,01,08,2.40
2010,06,14,01,09,1.90
2010,06,14,01,10,1.60
2010,06,14,01,11,0.70
2010,06,14,01,12,0.50
2010,06,14,01,13,0.90
2010,06,14,01,14,0.50
2010,06,14,01,15,1.20
2010,06,14,01,16,0.80
2010,06,14,01,17,1.80
2010,06,14,01,18,1.80
2010,06,14,01,19,1.20
2010,06,14,01,20,1.80
2010,06,14,01,21,4.20
2010,06,14,01,22,1.80
2010,06,14,01,23,1.80
2010,06,14,01,24,3.20
2010,06,14,01,25,2.40
2010,06,14,01,26,2.80
2010,06,14,01,27,3.40
2010,06,14,01,28,3.30
2010,06,14,01,29,1.60
2010,06,14,01,30,3.10
2010,06,14,01,31,1.80
2010,06,14,01,32,2.40
2010,06,14,01,33,2.10
2010,06,14,01,34,2.20
2010,06,14,01,35,2.30
2010,06,14,01,36,2.60
2010,06,14,01,37,2.20
2010,06,14,01,38,1.20
2010,06,14,01,39,2.80
2010,06,14,01,40,1.80
2010,06,14,01,41,2.30
2010,06,14,01,42,2.10
2010,06,14,01,43,1.80
2010,06,14,01,44,2.50
2010,06,14,01,45,2.70
2010,06,14,01,46,1.70
2010,06,14,01,47,1.90
2010,06,14,01,48,1.20
2010,06,14,01,49,2.10
2010,06,14,01,50,2.00
2010,06,14,01,51,3.10
2010,06,14,01,52,0.90
2010,06,14,01,53,1.80
2010,06,14,01,54,2.20
2010,06,14,01,55,2.40
2010,06,14,01,56,2.90
2010,06,14,01,57,2.80
2010,06,14,01,58,2.90
2010,06,14,01,59,1.30
2010,06,14,02,00,2.00
2010,06,14,02,01,1.70
2010,06,14,02,02,2.50
2010,06,14,02,03,0.90
2010,06,14,02,04,1.10
2010,06,14,02,05,1.00
2010,06,14,02,06,1.20
2010,06,14,02,07,1.80
2010,06,14,02,08,1.00
2010,06,14,02,09,1.30
2010,06,14,02,10,1.10
2010,06,14,02,11,1.30
2010,06,14,02,12,0.90
2010,06,14,02,13,1.00
2010,06,14,02,14,0.40
2010,06,14,02,15,0.70
2010,06,14,02,16,1.00
2010,06,14,02,17,1.50
2010,06,14,02,18,1.30
2010,06,14,02,19,1.50
2010,06,14,02,20,1.30
2010,06,14,02,21,1.80
2010,06,14,02,22,2.00
2010,06,14,02,23,2.30
2010,06,14,02,24,2.10
2010,06,14,02,25,1.30
2010,06,14,02,26,1.80
2010,06,14,02,27,1.20
2010,06,14,02,28,0.60
2010,06,14,02,29,0.80
2010,06,14,02,30,1.50
2010,06,14,02,31,0.90
2010,06,14,02,32,0.70
2010,06,14,02,33,1.00
2010,06,14,02,34,0.60
2010,06,14,02,35,0.70
2010,06,14,02,36,1.00
2010,06,14,02,37,0.20
2010,06,14,02,38,1.00
2010,06,14,02,39,0.70
2010,06,14,02,40,2.30
2010,06,14,02,41,1.60
2010,06,14,02,42,0.30
2010,06,14,02,43,0.10
2010,06,14,02,44,0.10
2010,06,14,02,45,0.20
2010,06,14,02,46,0.20
2010,06,14,02,47,0.90
2010,06,14,02,48,1.00
2010,06,14,02,49,0.90
2010,06,14,02,50,1.10
2010,06,14,02,51,0.80
2010,06,14,02,52,0.10
2010,06,14,02,53,0.10
2010,06,14,02,54,0.70
2010,06,14,02,55,1.10
2010,06,14,02,56,0.20
2010,06,14,02,57,0.40
2010,06,14,02,58,0.40
2010,06,14,02,59,0.20
2010,06,14,03,00,0.10
2010,06,14,03,01,0.30
2010,06,14,03,02,0.80
2010,06,14,03,03,0.60
2010,06,14,03,04,0.40
2010,06,14,03,05,0.70
2010,06,14,03,06,1.30
2010,06,14,03,07,1.00
2010,06,14,03,08,1.30
2010,06,14,03,09,0.30
2010,06,14,03,10,0.40
2010,06,14,03,11,0.50
2010,06,14,03,12,0.70
2010,06,14,03,13,0.50
2010,06,14,03,14,0.40
2010,06,14,03,15,1.40
2010,06,14,03,16,0.40
2010,06,14,03,17,1.00
2010,06,14,03,18,0.40
2010,06,14,03,19,0.20
2010,06,14,03,20,0.00
2010,06,14,03,21,1.00
2010,06,14,03,22,0.70
2010,06,14,03,23,0.50
2010,06,14,03,24,1.30
2010,06,14,03,25,0.50
2010,06,14,03,26,1.50
2010,06,14,03,27,1.90
2010,06,14,03,28,2.30
2010,06,14,03,29,1.70
2010,06,14,03,30,1.50
2010,06,14,03,31,1.60
2010,06,14,03,32,0.30
2010,06,14,03,33,0.60
2010,06,14,03,34,0.20
2010,06,14,03,35,1.20
2010,06,14,03,36,0.20
2010,06,14,03,37,0.60
2010,06,14,03,38,0.70
2010,06,14,03,39,0.30
2010,06,14,03,40,0.10
2010,06,14,03,41,0.80
2010,06,14,03,42,0.50
2010,06,14,03,43,0.10
2010,06,14,03,44,0.60
2010,06,14,03,45,1.60
2010,06,14,03,46,1.10
2010,06,14,03,47,1.00
2010,06,14,03,48,0.70
2010,06,14,03,49,1.40
2010,06,14,03,50,1.50
2010,06,14,03,51,1.00
2010,06,14,03,52,0.90
2010,06,14,03,53,1.00
2010,06,14,03,54,1.50
2010,06,14,03,55,1.70
2010,06,14,03,56,1.50
2010,06,14,03,57,2.00
2010,06,14,03,58,2.20
2010,06,14,03,59,1.50
2010,06,14,04,00,1.70
2010,06,14,04,01,1.40
2010,06,14,04,02,1.20
2010,06,14,04,03,2.00
2010,06,14,04,04,1.80
2010,06,14,04,05,1.40
2010,06,14,04,06,1.90
2010,06,14,04,07,2.10
2010,06,14,04,08,1.50
2010,06,14,04,09,2.10
2010,06,14,04,10,1.80
2010,06,14,04,11,0.90
2010,06,14,04,12,1.70
2010,06,14,04,13,1.80
2010,06,14,04,14,1.10
2010,06,14,04,15,1.00
2010,06,14,04,16,0.90
2010,06,14,04,17,1.10
2010,06,14,04,18,1.40
2010,06,14,04,19,1.60
2010,06,14,04,20,1.80
2010,06,14,04,21,1.80
2010,06,14,04,22,1.30
2010,06,14,04,23,1.60
2010,06,14,04,24,3.20
2010,06,14,04,25,2.10
2010,06,14,04,26,2.60
2010,06,14,04,27,3.00
2010,06,14,04,28,2.80
2010,06,14,04,29,2.90
2010,06,14,04,30,2.00
2010,06,14,04,31,1.70
2010,06,14,04,32,1.90
2010,06,14,04,33,3.20
2010,06,14,04,34,3.10
2010,06,14,04,35,2.20
2010,06,14,04,36,2.10
2010,06,14,04,37,3.40
2010,06,14,04,38,2.60
2010,06,14,04,39,2.70
2010,06,14,04,40,2.60
2010,06,14,04,41,2.30
2010,06,14,04,42,1.80
2010,06,14,04,43,2.20
2010,06,14,04,44,0.90
2010,06,14,04,45,1.90
2010,06,14,04,46,1.80
2010,06,14,04,47,1.60
2010,06,14,04,48,0.70
2010,06,14,04,49,1.90
2010,06,14,04,50,0.50
2010,06,14,04,51,0.90
2010,06,14,04,52,1.90
2010,06,14,04,53,1.20
2010,06,14,04,54,1.30
2010,06,14,04,55,1.00
2010,06,14,04,56,2.60
2010,06,14,04,57,1.00
2010,06,14,04,58,0.50
2010,06,14,04,59,1.10
2010,06,14,05,00,0.80
2010,06,14,05,01,1.80
2010,06,14,05,02,1.80
2010,06,14,05,03,0.70
2010,06,14,05,04,0.30
2010,06,14,05,05,0.60
2010,06,14,05,06,0.20
2010,06,14,05,07,0.40
2010,06,14,05,08,0.50
2010,06,14,05,09,1.10
2010,06,14,05,10,1.70
2010,06,14,05,11,1.80
2010,06,14,05,12,1.70
2010,06,14,05,13,2.00
2010,06,14,05,14,2.10
2010,06,14,05,15,1.20
2010,06,14,05,16,0.90
2010,06,14,05,17,1.20
2010,06,14,05,18,1.10
2010,06,14,05,19,0.90
2010,06,14,05,20,1.90
2010,06,14,05,21,1.60
2010,06,14,05,22,1.50
2010,06,14,05,23,2.10
2010,06,14,05,24,1.40
2010,06,14,05,25,2.30
2010,06,14,05,26,1.90
2010,06,14,05,27,1.60
2010,06,14,05,28,0.50
2010,06,14,05,29,1.00
2010,06,14,05,30,0.90
2010,06,14,05,31,1.10
2010,06,14,05,32,0.30
2010,06,14,05,33,1.00
2010,06,14,05,34,0.70
2010,06,14,05,35,0.70
2010,06,14,05,36,0.50
2010,06,14,05,37,1.40
2010,06,14,05,38,1.80
2010,06,14,05,39,1.30
2010,06,14,05,40,1.90
2010,06,14,05,41,0.80
2010,06,14,05,42,0.60
2010,06,14,05,43,0.40
2010,06,14,05,44,1.80
2010,06,14,05,45,1.50
2010,06,14,05,46,1.20
2010,06,14,05,47,0.80
2010,06,14,05,48,1.00
2010,06,14,05,49,3.60
2010,06,14,05,50,1.50
2010,06,14,05,51,0.50
2010,06,14,05,52,1.90
2010,06,14,05,53,0.90
2010,06,14,05,54,1.50
2010,06,14,05,55,1.90
2010,06,14,05,56,2.90
2010,06,14,05,57,2.90
2010,06,14,05,58,0.30
2010,06,14,05,59,2.90
2010,06,14,06,00,2.70
2010,06,14,06,01,2.50
2010,06,14,06,02,1.10
2010,06,14,06,03,4.20
2010,06,14,06,04,3.50
2010,06,14,06,05,1.20
2010,06,14,06,06,1.40
2010,06,14,06,07,2.10
2010,06,14,06,08,1.40
2010,06,14,06,09,1.10
2010,06,14,06,10,0.70
2010,06,14,06,11,1.80
2010,06,14,06,12,0.90
2010,06,14,06,13,4.00
2010,06,14,06,14,4.80
2010,06,14,06,15,0.20
2010,06,14,06,16,1.60
2010,06,14,06,17,1.10
2010,06,14,06,18,2.60
2010,06,14,06,19,0.90
2010,06,14,06,20,1.50
2010,06,14,06,21,2.20
2010,06,14,06,22,1.00
2010,06,14,06,23,5.10
2010,06,14,06,24,3.10
2010,06,14,06,25,1.90
2010,06,14,06,26,1.50
2010,06,14,06,27,1.90
2010,06,14,06,28,1.80
2010,06,14,06,29,0.70
2010,06,14,06,30,0.80
2010,06,14,06,31,1.00
2010,06,14,06,32,2.50
2010,06,14,06,33,1.00
2010,06,14,06,34,1.70
2010,06,14,06,35,0.40
2010,06,14,06,36,0.50
2010,06,14,06,37,0.70
2010,06,14,06,38,0.10
2010,06,14,06,39,1.80
2010,06,14,06,40,0.00
2010,06,14,06,41,0.20
2010,06,14,06,42,0.80
2010,06,14,06,43,0.20
2010,06,14,06,44,0.10
2010,06,14,06,45,0.00
2010,06,14,06,46,0.00
2010,06,14,06,47,0.00
2010,06,14,06,48,0.10
2010,06,14,06,49,0.10
2010,06,14,06,50,0.00
2010,06,14,06,51,0.00
2010,06,14,06,52,0.10
2010,06,14,06,53,0.50
2010,06,14,06,54,0.00
2010,06,14,06,55,0.20
2010,06,14,06,56,0.70
2010,06,14,06,57,0.10
2010,06,14,06,58,0.00
2010,06,14,06,59,0.00
2010,06,14,07,00,0.00
2010,06,14,07,01,0.00
2010,06,14,07,02,0.00
2010,06,14,07,03,0.90
2010,06,14,07,04,0.00
2010,06,14,07,05,0.00
2010,06,14,07,06,0.40
2010,06,14,07,07,0.00
2010,06,14,07,08,0.00
2010,06,14,07,09,0.00
2010,06,14,07,10,0.10
2010,06,14,07,11,0.00
2010,06,14,07,12,0.00
2010,06,14,07,13,0.10
2010,06,14,07,14,1.00
2010,06,14,07,15,0.50
2010,06,14,07,16,0.70
2010,06,14,07,17,1.50
2010,06,14,07,18,0.10
2010,06,14,07,19,0.00
2010,06,14,07,20,0.80
2010,06,14,07,21,0.50
2010,06,14,07,22,1.30
2010,06,14,07,23,1.80
2010,06,14,07,24,0.60
2010,06,14,07,25,0.40
2010,06,14,07,26,3.10
2010,06,14,07,27,0.90
2010,06,14,07,28,1.00
2010,06,14,07,29,1.20
2010,06,14,07,30,0.90
2010,06,14,07,31,0.30
2010,06,14,07,32,0.50
2010,06,14,07,33,0.80
2010,06,14,07,34,0.20
2010,06,14,07,35,0.10
2010,06,14,07,36,0.70
2010,06,14,07,37,0.20
2010,06,14,07,38,0.60
2010,06,14,07,39,0.90
2010,06,14,07,40,1.10
2010,06,14,07,41,0.10
2010,06,14,07,42,0.00
2010,06,14,07,43,0.20
2010,06,14,07,44,0.10
2010,06,14,07,45,0.10
2010,06,14,07,46,0.20
2010,06,14,07,47,0.50
2010,06,14,07,48,0.40
2010,06,14,07,49,0.40
2010,06,14,07,50,1.80
2010,06,14,07,51,1.50
2010,06,14,07,52,3.40
2010,06,14,07,53,0.20
2010,06,14,07,54,0.40
2010,06,14,07,55,1.00
2010,06,14,07,56,1.30
2010,06,14,07,57,1.30
2010,06,14,07,58,0.70
2010,06,14,07,59,0.00
2010,06,14,08,00,0.90
2010,06,14,08,01,2.00
2010,06,14,08,02,3.10
2010,06,14,08,03,1.50
2010,06,14,08,04,1.00
2010,06,14,08,05,1.00
2010,06,14,08,06,1.80
2010,06,14,08,07,0.10
2010,06,14,08,08,0.10
2010,06,14,08,09,1.10
2010,06,14,08,10,3.20
2010,06,14,08,11,2.30
2010,06,14,08,12,0.10
2010,06,14,08,13,0.90
2010,06,14,08,14,0.10
2010,06,14,08,15,0.00
2010,06,14,08,16,0.00
2010,06,14,08,17,1.50
2010,06,14,08,18,5.50
2010,06,14,08,19,4.80
2010,06,14,08,20,2.50
2010,06,14,08,21,1.10
2010,06,14,08,22,2.00
2010,06,14,08,23,1.30
2010,06,14,08,24,1.00
2010,06,14,08,25,3.00
2010,06,14,08,26,2.60
2010,06,14,08,27,3.00
2010,06,14,08,28,5.10
2010,06,14,08,29,2.70
2010,06,14,08,30,2.50
2010,06,14,08,31,0.30
2010,06,14,08,32,1.00
2010,06,14,08,33,0.40
2010,06,14,08,34,0.00
2010,06,14,08,35,1.20
2010,06,14,08,36,4.90
2010,06,14,08,37,2.50
2010,06,14,08,38,1.10
2010,06,14,08,39,4.20
2010,06,14,08,40,4.30
2010,06,14,08,41,1.80
2010,06,14,08,42,5.90
2010,06,14,08,43,3.20
2010,06,14,08,44,1.40
2010,06,14,08,45,2.40
2010,06,14,08,46,3.40
2010,06,14,08,47,4.10
2010,06,14,08,48,6.80
2010,06,14,08,49,8.70
2010,06,14,08,50,5.50
2010,06,14,08,51,5.60
2010,06,14,08,52,4.10
2010,06,14,08,53,2.40
2010,06,14,08,54,0.20
2010,06,14,08,55,2.30
2010,06,14,08,56,7.60
2010,06,14,08,57,1.80
2010,06,14,08,58,1.80
2010,06,14,08,59,3.30
2010,06,14,09,00,5.10
2010,06,14,09,01,3.60
2010,06,14,09,02,8.10
2010,06,14,09,03,5.50
2010,06,14,09,04,3.10
2010,06,14,09,05,1.40
2010,06,14,09,06,1.20
2010,06,14,09,07,3.40
2010,06,14,09,08,3.10
2010,06,14,09,09,1.20
2010,06,14,09,10,1.50
2010,06,14,09,11,1.70
2010,06,14,09,12,1.60
2010,06,14,09,13,2.50
2010,06,14,09,14,0.00
2010,06,14,09,15,0.00
2010,06,14,09,16,0.10
2010,06,14,09,17,3.80
2010,06,14,09,18,1.00
2010,06,14,09,19,0.70
2010,06,14,09,20,0.30
2010,06,14,09,21,0.40
2010,06,14,09,22,0.10
2010,06,14,09,23,0.70
2010,06,14,09,24,1.30
2010,06,14,09,25,2.20
2010,06,14,09,26,1.80
2010,06,14,09,27,4.80
2010,06,14,09,28,4.70
2010,06,14,09,29,0.90
2010,06,14,09,30,1.60
2010,06,14,09,31,0.50
2010,06,14,09,32,4.40
2010,06,14,09,33,3.80
2010,06,14,09,34,0.00
2010,06,14,09,35,2.60
2010,06,14,09,36,0.30
2010,06,14,09,37,1.90
2010,06,14,09,38,4.20
2010,06,14,09,39,4.50
2010,06,14,09,40,7.20
2010,06,14,09,41,4.40
2010,06,14,09,42,3.70
2010,06,14,09,43,2.00
2010,06,14,09,44,1.20
2010,06,14,09,45,2.10
2010,06,14,09,46,1.70
2010,06,14,09,47,0.90
2010,06,14,09,48,0.20
2010,06,14,09,49,0.70
2010,06,14,09,50,2.30
2010,06,14,09,51,1.70
2010,06,14,09,52,2.00
2010,06,14,09,53,7.10
2010,06,14,09,54,5.00
2010,06,14,09,55,2.80
2010,06,14,09,56,1.70
2010,06,14,09,57,2.80
2010,06,14,09,58,2.20
2010,06,14,09,59,7.10
2010,06,14,10,00,4.80
2010,06,14,10,01,3.40
2010,06,14,10,02,6.40
2010,06,14,10,03,4.20
2010,06,14,10,04,8.20
2010,06,14,10,05,4.70
2010,06,14,10,06,3.10
2010,06,14,10,07,0.00
2010,06,14,10,08,3.70
2010,06,14,10,09,5.00
2010,06,14,10,10,8.40
2010,06,14,10,11,4.30
2010,06,14,10,12,11.00
2010,06,14,10,13,7.30
2010,06,14,10,14,6.70
2010,06,14,10,15,5.30
2010,06,14,10,16,5.30
2010,06,14,10,17,7.60
2010,06,14,10,18,5.70
2010,06,14,10,19,7.20
2010,06,14,10,20,6.00
2010,06,14,10,21,8.80
2010,06,14,10,22,4.10
2010,06,14,10,23,7.10
2010,06,14,10,24,6.40
2010,06,14,10,25,5.80
2010,06,14,10,26,3.50
2010,06,14,10,27,5.90
2010,06,14,10,28,4.30
2010,06,14,10,29,8.30
2010,06,14,10,30,8.90
2010,06,14,10,31,2.90
2010,06,14,10,32,7.80
2010,06,14,10,33,6.10
2010,06,14,10,34,10.10
2010,06,14,10,35,4.10
2010,06,14,10,36,8.40
2010,06,14,10,37,6.20
2010,06,14,10,38,2.50
2010,06,14,10,39,3.70
2010,06,14,10,40,6.60
2010,06,14,10,41,6.70
2010,06,14,10,42,6.80
2010,06,14,10,43,7.10
2010,06,14,10,44,7.70
2010,06,14,10,45,13.50
2010,06,14,10,46,6.70
2010,06,14,10,47,1.50
2010,06,14,10,48,2.60
2010,06,14,10,49,10.20
2010,06,14,10,50,8.20
2010,06,14,10,51,11.50
2010,06,14,10,52,11.30
2010,06,14,10,53,10.80
2010,06,14,10,54,8.10
2010,06,14,10,55,3.70
2010,06,14,10,56,6.20
2010,06,14,10,57,5.30
2010,06,14,10,58,11.50
2010,06,14,10,59,10.60
2010,06,14,11,00,13.00
2010,06,14,11,01,12.50
2010,06,14,11,02,9.40
2010,06,14,11,03,6.80
2010,06,14,11,04,5.70
2010,06,14,11,05,10.30
2010,06,14,11,06,8.70
2010,06,14,11,07,7.70
2010,06,14,11,08,12.10
2010,06,14,11,09,11.60
2010,06,14,11,10,10.50
2010,06,14,11,11,11.00
2010,06,14,11,12,13.80
2010,06,14,11,13,7.60
2010,06,14,11,14,11.30
2010,06,14,11,15,10.10
2010,06,14,11,16,6.40
2010,06,14,11,17,13.60
2010,06,14,11,18,6.90
2010,06,14,11,19,9.50
2010,06,14,11,20,17.60
2010,06,14,11,21,14.30
2010,06,14,11,22,7.70
2010,06,14,11,23,12.40
2010,06,14,11,24,11.50
2010,06,14,11,25,13.60
2010,06,14,11,26,12.20
2010,06,14,11,27,12.10
2010,06,14,11,28,12.10
2010,06,14,11,29,16.80
2010,06,14,11,30,17.20
2010,06,14,11,31,18.10
2010,06,14,11,32,14.70
2010,06,14,11,33,13.20
2010,06,14,11,34,11.00
2010,06,14,11,35,7.10
2010,06,14,11,36,6.20
2010,06,14,11,37,11.30
2010,06,14,11,38,16.20
2010,06,14,11,39,17.70
2010,06,14,11,40,16.50
2010,06,14,11,41,13.40
2010,06,14,11,42,13.00
2010,06,14,11,43,14.30
2010,06,14,11,44,15.50
2010,06,14,11,45,18.90
2010,06,14,11,46,10.60
2010,06,14,11,47,13.50
2010,06,14,11,48,11.40
2010,06,14,11,49,16.90
2010,06,14,11,50,17.90
2010,06,14,11,51,16.60
2010,06,14,11,52,15.80
2010,06,14,11,53,14.90
2010,06,14,11,54,12.70
2010,06,14,11,55,12.90
2010,06,14,11,56,15.80
2010,06,14,11,57,11.60
2010,06,14,11,58,8.90
2010,06,14,11,59,14.90
2010,06,14,12,00,13.80
2010,06,14,12,01,20.10
2010,06,14,12,02,13.30
2010,06,14,12,03,9.10
2010,06,14,12,04,17.30
2010,06,14,12,05,14.30
2010,06,14,12,06,14.80
2010,06,14,12,07,13.50
2010,06,14,12,08,13.30
2010,06,14,12,09,11.30
2010,06,14,12,10,11.80
2010,06,14,12,11,16.30
2010,06,14,12,12,7.80
2010,06,14,12,13,14.70
2010,06,14,12,14,13.90
2010,06,14,12,15,13.80
2010,06,14,12,16,19.40
2010,06,14,12,17,18.80
2010,06,14,12,18,12.50
2010,06,14,12,19,15.10
2010,06,14,12,20,6.80
2010,06,14,12,21,14.20
2010,06,14,12,22,13.00
2010,06,14,12,23,13.40
2010,06,14,12,24,18.10
2010,06,14,12,25,10.40
2010,06,14,12,26,10.30
2010,06,14,12,27,14.90
2010,06,14,12,28,19.50
2010,06,14,12,29,15.70
2010,06,14,12,30,16.70
2010,06,14,12,31,13.00
2010,06,14,12,32,9.70
2010,06,14,12,33,13.60
2010,06,14,12,34,16.50
2010,06,14,12,35,18.50
2010,06,14,12,36,11.60
2010,06,14,12,37,13.70
2010,06,14,12,38,12.00
2010,06,14,12,39,13.20
2010,06,14,12,40,16.00
2010,06,14,12,41,9.20
2010,06,14,12,42,11.60
2010,06,14,12,43,16.90
2010,06,14,12,44,10.20
2010,06,14,12,45,13.00
2010,06,14,12,46,13.00
2010,06,14,12,47,9.10
2010,06,14,12,48,9.20
2010,06,14,12,49,13.90
2010,06,14,12,50,10.90
2010,06,14,12,51,11.20
2010,06,14,12,52,7.00
2010,06,14,12,53,16.50
2010,06,14,12,54,15.40
2010,06,14,12,55,11.60
2010,06,14,12,56,9.50
2010,06,14,12,57,18.20
2010,06,14,12,58,20.40
2010,06,14,12,59,19.20
2010,06,14,13,00,16.80
2010,06,14,13,01,13.70
2010,06,14,13,02,18.10
2010,06,14,13,03,16.20
2010,06,14,13,04,11.90
2010,06,14,13,05,13.40
2010,06,14,13,06,14.60
2010,06,14,13,07,17.00
2010,06,14,13,08,18.40
2010,06,14,13,09,18.80
2010,06,14,13,10,21.50
2010,06,14,13,11,18.70
2010,06,14,13,12,12.60
2010,06,14,13,13,17.20
2010,06,14,13,14,17.00
2010,06,14,13,15,20.50
2010,06,14,13,16,15.80
2010,06,14,13,17,13.40
2010,06,14,13,18,18.90
2010,06,14,13,19,17.40
2010,06,14,13,20,9.90
2010,06,14,13,21,15.80
2010,06,14,13,22,14.00
2010,06,14,13,23,9.90
2010,06,14,13,24,11.80
2010,06,14,13,25,12.60
2010,06,14,13,26,10.90
2010,06,14,13,27,13.20
2010,06,14,13,28,23.20
2010,06,14,13,29,7.20
2010,06,14,13,30,15.80
2010,06,14,13,31,16.70
2010,06,14,13,32,16.20
2010,06,14,13,33,18.10
2010,06,14,13,34,13.90
2010,06,14,13,35,8.40
2010,06,14,13,36,9.50
2010,06,14,13,37,12.70
2010,06,14,13,38,16.50
2010,06,14,13,39,21.50
2010,06,14,13,40,19.50
2010,06,14,13,41,15.40
2010,06,14,13,42,8.90
2010,06,14,13,43,8.70
2010,06,14,13,44,12.30
2010,06,14,13,45,15.70
2010,06,14,13,46,14.20
2010,06,14,13,47,14.70
2010,06,14,13,48,17.20
2010,06,14,13,49,15.60
2010,06,14,13,50,7.20
2010,06,14,13,51,13.60
2010,06,14,13,52,16.20
2010,06,14,13,53,8.90
2010,06,14,13,54,10.60
2010,06,14,13,55,8.90
2010,06,14,13,56,16.40
2010,06,14,13,57,22.30
2010,06,14,13,58,10.10
2010,06,14,13,59,14.00
2010,06,14,14,00,15.40
2010,06,14,14,01,16.30
2010,06,14,14,02,12.30
2010,06,14,14,03,15.00
2010,06,14,14,04,23.00
2010,06,14,14,05,11.60
2010,06,14,14,06,10.40
2010,06,14,14,07,13.90
2010,06,14,14,08,10.00
2010,06,14,14,09,18.90
2010,06,14,14,10,11.60
2010,06,14,14,11,11.00
2010,06,14,14,12,6.20
2010,06,14,14,13,19.60
2010,06,14,14,14,13.50
2010,06,14,14,15,10.30
2010,06,14,14,16,9.70
2010,06,14,14,17,15.00
2010,06,14,14,18,12.60
2010,06,14,14,19,16.00
2010,06,14,14,20,11.30
2010,06,14,14,21,16.80
2010,06,14,14,22,17.70
2010,06,14,14,23,11.60
2010,06,14,14,24,14.80
2010,06,14,14,25,13.80
2010,06,14,14,26,14.00
2010,06,14,14,27,12.90
2010,06,14,14,28,7.80
2010,06,14,14,29,12.80
2010,06,14,14,30,20.70
2010,06,14,14,31,17.30
2010,06,14,14,32,14.30
2010,06,14,14,33,13.30
2010,06,14,14,34,15.00
2010,06,14,14,35,9.30
2010,06,14,14,36,15.90
2010,06,14,14,37,13.20
2010,06,14,14,38,15.40
2010,06,14,14,39,15.10
2010,06,14,14,40,17.30
2010,06,14,14,41,16.30
2010,06,14,14,42,12.90
2010,06,14,14,43,22.20
2010,06,14,14,44,18.60
2010,06,14,14,45,17.10
2010,06,14,14,46,15.60
2010,06,14,14,47,19.40
2010,06,14,14,48,13.60
2010,06,14,14,49,14.60
2010,06,14,14,50,14.60
2010,06,14,14,51,17.70
2010,06,14,14,52,9.70
2010,06,14,14,53,9.20
2010,06,14,14,54,13.40
2010,06,14,14,55,16.80
2010,06,14,14,56,17.10
2010,06,14,14,57,11.90
2010,06,14,14,58,15.40
2010,06,14,14,59,14.10
2010,06,14,15,00,17.40
2010,06,14,15,01,16.80
2010,06,14,15,02,12.70
2010,06,14,15,03,16.20
2010,06,14,15,04,15.70
2010,06,14,15,05,11.80
2010,06,14,15,06,13.60
2010,06,14,15,07,6.10
2010,06,14,15,08,11.30
2010,06,14,15,09,7.60
2010,06,14,15,10,18.00
2010,06,14,15,11,20.00
2010,06,14,15,12,10.30
2010,06,14,15,13,14.30
2010,06,14,15,14,8.90
2010,06,14,15,15,13.30
2010,06,14,15,16,11.50
2010,06,14,15,17,14.30
2010,06,14,15,18,11.80
2010,06,14,15,19,13.90
2010,06,14,15,20,12.00
2010,06,14,15,21,10.20
2010,06,14,15,22,14.20
2010,06,14,15,23,19.80
2010,06,14,15,24,17.80
2010,06,14,15,25,10.10
2010,06,14,15,26,9.70
2010,06,14,15,27,14.60
2010,06,14,15,28,11.20
2010,06,14,15,29,15.00
2010,06,14,15,30,11.20
2010,06,14,15,31,18.90
2010,06,14,15,32,19.80
2010,06,14,15,33,20.00
2010,06,14,15,34,11.40
2010,06,14,15,35,6.40
2010,06,14,15,36,16.60
2010,06,14,15,37,19.80
2010,06,14,15,39,15.80
2010,06,14,15,40,15.60
2010,06,14,15,41,11.60
2010,06,14,15,42,13.80
2010,06,14,15,43,14.30
2010,06,14,15,44,15.90
2010,06,14,15,45,14.30
2010,06,14,15,46,10.00
2010,06,14,15,47,19.90
2010,06,14,15,48,15.00
2010,06,14,15,49,19.90
2010,06,14,15,50,9.10
2010,06,14,15,51,8.40
2010,06,14,15,52,10.40
2010,06,14,15,53,14.30
2010,06,14,15,54,11.50
2010,06,14,15,55,7.80
2010,06,14,15,56,12.80
2010,06,14,15,57,18.10
2010,06,14,15,58,13.60
2010,06,14,15,59,12.90
2010,06,14,16,00,20.30
2010,06,14,16,01,10.80
2010,06,14,16,02,16.60
2010,06,14,16,03,9.00
2010,06,14,16,04,17.60
2010,06,14,16,05,15.40
2010,06,14,16,06,17.60
2010,06,14,16,07,19.00
2010,06,14,16,08,20.90
2010,06,14,16,09,27.30
2010,06,14,16,10,12.90
2010,06,14,16,11,12.10
2010,06,14,16,12,12.30
2010,06,14,16,13,12.80
2010,06,14,16,14,7.70
2010,06,14,16,15,11.30
2010,06,14,16,16,7.70
2010,06,14,16,17,9.60
2010,06,14,16,18,9.50
2010,06,14,16,19,12.90
2010,06,14,16,20,16.20
2010,06,14,16,21,8.50
2010,06,14,16,22,14.20
2010,06,14,16,23,15.10
2010,06,14,16,24,20.50
2010,06,14,16,25,15.50
2010,06,14,16,26,18.90
2010,06,14,16,27,15.10
2010,06,14,16,28,13.20
2010,06,14,16,29,12.00
2010,06,14,16,30,14.60
2010,06,14,16,31,8.00
2010,06,14,16,32,8.00
2010,06,14,16,33,19.30
2010,06,14,16,34,19.20
2010,06,14,16,35,16.30
2010,06,14,16,36,14.50
2010,06,14,16,37,14.60
2010,06,14,16,38,12.40
2010,06,14,16,39,21.10
2010,06,14,16,40,21.00
2010,06,14,16,41,16.20
2010,06,14,16,42,13.60
2010,06,14,16,43,19.80
2010,06,14,16,44,22.80
2010,06,14,16,45,16.40
2010,06,14,16,46,18.80
2010,06,14,16,47,11.60
2010,06,14,16,48,16.10
2010,06,14,16,49,14.20
2010,06,14,16,50,12.80
2010,06,14,16,51,15.30
2010,06,14,16,52,22.30
2010,06,14,16,53,20.60
2010,06,14,16,54,17.70
2010,06,14,16,55,14.60
2010,06,14,16,56,16.50
2010,06,14,16,57,16.70
2010,06,14,16,58,11.40
2010,06,14,16,59,9.30
2010,06,14,17,00,13.00
2010,06,14,17,01,18.70
2010,06,14,17,02,12.60
2010,06,14,17,03,19.60
2010,06,14,17,04,16.90
2010,06,14,17,05,20.20
2010,06,14,17,06,20.80
2010,06,14,17,07,15.60
2010,06,14,17,08,16.60
2010,06,14,17,09,15.40
2010,06,14,17,10,10.20
2010,06,14,17,11,6.70
2010,06,14,17,12,11.30
2010,06,14,17,13,16.60
2010,06,14,17,14,13.60
2010,06,14,17,15,16.80
2010,06,14,17,16,11.60
2010,06,14,17,17,17.00
2010,06,14,17,18,17.00
2010,06,14,17,19,14.20
2010,06,14,17,20,14.30
2010,06,14,17,21,15.40
2010,06,14,17,22,13.80
2010,06,14,17,23,15.90
2010,06,14,17,24,14.60
2010,06,14,17,25,13.10
2010,06,14,17,26,12.80
2010,06,14,17,27,16.00
2010,06,14,17,28,11.20
2010,06,14,17,29,11.60
2010,06,14,17,30,11.40
2010,06,14,17,31,11.90
2010,06,14,17,32,8.80
2010,06,14,17,33,10.00
2010,06,14,17,34,12.60
2010,06,14,17,35,18.80
2010,06,14,17,36,9.80
2010,06,14,17,37,14.60
2010,06,14,17,38,13.10
2010,06,14,17,39,16.50
2010,06,14,17,40,2.80
2010,06,14,17,41,15.60
2010,06,14,17,42,13.20
2010,06,14,17,43,20.60
2010,06,14,17,44,11.60
2010,06,14,17,45,14.30
2010,06,14,17,46,14.00
2010,06,14,17,47,12.70
2010,06,14,17,48,18.20
2010,06,14,17,49,20.40
2010,06,14,17,50,15.40
2010,06,14,17,51,10.50